Weather History for KDHT - October, 2012

Change the Weather History Date:

Monday, October 8, 2012

  Actual Average Record
Temperature  
Mean Temperature 47 °F 58 °F  
Max Temperature 68 °F 73 °F 93 °F (1979)
Min Temperature 25 °F 43 °F 25 °F (2012)
Degree Days  
Heating Degree Days 18 7  
Month to date heating degree days 100 49  
Since 1 July heating degree days 126 112  
Cooling Degree Days 0 1  
Month to date cooling degree days 1 8  
Year to date cooling degree days 1643 1136  
Moisture  
Dew Point 29 °F    
Average Humidity 56    
Maximum Humidity 92    
Minimum Humidity 19    
Precipitation  
Precipitation 0.00 in 0.04 in 0.53 in (2009)
Month to date precipitation 0.00 0.36  
Year to date precipitation 6.33 15.36  
Snow  
Snow 0.00 in 0.00 in 5.00 in (1970)
Month to date snowfall 0.0 0.0  
Since 1 July snowfall 0.0 0.0  
Since 1 September snowfall 0.0 0.0  
Snow Depth 0.00 in    
Sea Level Pressure  
Sea Level Pressure 30.01 in    
Wind  
Wind Speed 11 mph (SSW)    
Max Wind Speed 22 mph    
Max Gust Speed 26 mph    
Visibility 10 miles    
Events      
T = Trace of Precipitation, MM = Missing Value Source: NWS Daily Summary

Daily Weather History Graph

Daily Weather History Graph

Search for Another Location

Airport or City:

Trip Planner

Search our weather history database for the weather conditions in past years. The results will help you decide how hot, cold, wet, or windy it might be!

Date:

Astronomy

Oct. 08, 2012 Rise Set
Actual Time 7:51 AM CDT 7:23 PM CDT
Civil Twilight 7:25 AM CDT 7:48 PM CDT
Nautical Twilight 6:56 AM CDT 8:18 PM CDT
Astronomical Twilight 6:26 AM CDT 8:48 PM CDT
Moon 12:45 AM CDT (10/8) 3:02 PM CDT (10/8)
Length of Visible Light 12h 22m
Length of Day
11h 31m
Last Quarter, 46% of the Moon is Illuminated
Oct 8
Last Quarter
Oct 15
New
Oct 21
First Quarter
Oct 29
Full
Nov 6
Last Quarter

Hourly Weather History & Observations

Time (CDT) Temp. Windchill Dew Point Humidity Pressure Visibility Wind Dir Wind Speed Gust Speed Precip Events Conditions
12:53 AM 32.0 °F 24.2 °F 26.1 °F 79% 30.18 in 10.0 mi SSW 9.2 mph - N/A   Clear
1:53 AM 30.0 °F 22.4 °F 25.0 °F 82% 30.17 in 10.0 mi SSW 8.1 mph - N/A   Clear
2:53 AM 28.9 °F 22.8 °F 24.1 °F 82% 30.17 in 10.0 mi SSW 5.8 mph - N/A   Clear
3:53 AM 30.9 °F 26.2 °F 26.1 °F 82% 30.14 in 10.0 mi SW 4.6 mph - N/A   Clear
4:53 AM 27.0 °F 19.5 °F 24.1 °F 89% 30.13 in 10.0 mi SW 6.9 mph - N/A   Clear
5:53 AM 30.0 °F 24.1 °F 25.0 °F 82% 30.11 in 10.0 mi SW 5.8 mph - N/A   Clear
6:53 AM 25.0 °F 17.1 °F 21.9 °F 88% 30.12 in 10.0 mi SSW 6.9 mph - N/A   Clear
7:53 AM 27.0 °F 18.0 °F 23.0 °F 85% 30.13 in 10.0 mi SSW 9.2 mph - 0.00 in   Clear
8:53 AM 39.0 °F 31.8 °F 30.9 °F 73% 30.11 in 10.0 mi SW 11.5 mph - N/A   Clear
9:53 AM 46.0 °F 39.3 °F 33.1 °F 61% 30.10 in 10.0 mi SW 16.1 mph - N/A   Clear
10:53 AM 53.1 °F - 34.0 °F 48% 30.06 in 10.0 mi SW 16.1 mph - N/A   Clear
11:53 AM 57.0 °F - 34.0 °F 42% 30.03 in 10.0 mi SW 17.3 mph - N/A   Clear
12:53 PM 60.1 °F - 33.1 °F 36% 30.00 in 10.0 mi SSW 18.4 mph 24.2 mph N/A   Clear
1:53 PM 62.1 °F - 33.1 °F 34% 29.97 in 10.0 mi SSW 18.4 mph 24.2 mph N/A   Clear
2:53 PM 64.0 °F - 30.9 °F 29% 29.94 in 10.0 mi SW 15.0 mph - N/A   Clear
3:53 PM 64.9 °F - 30.0 °F 27% 29.91 in 10.0 mi SSW 13.8 mph - N/A   Clear
4:53 PM 66.9 °F - 28.9 °F 24% 29.89 in 10.0 mi SW 16.1 mph - N/A   Clear
5:53 PM 68.0 °F - 25.0 °F 20% 29.86 in 10.0 mi SSW 8.1 mph - N/A   Clear
6:53 PM 64.9 °F - 26.1 °F 23% 29.88 in 10.0 mi SSE 6.9 mph - N/A   Clear
7:53 PM 59.0 °F - 26.1 °F 28% 29.88 in 7.0 mi ESE 5.8 mph - N/A   Clear
8:53 PM 55.4 °F - 30.2 °F 38% 29.92 in 10.0 mi SE 9.2 mph - N/A   Clear
9:53 PM 52.0 °F - 32.0 °F 47% 29.85 in 10.0 mi SE 11.5 mph - N/A   Clear
10:53 PM 50.0 °F - 35.1 °F 57% 29.85 in 10.0 mi South 6.9 mph - N/A   Clear
11:53 PM 46.9 °F - 34.0 °F 61% 29.85 in 10.0 mi SSW 10.4 mph - N/A   Clear